Location: Newark
(35.2672°N, 80.7344°W)
Time: 02:24:18
(UTC+00:00)

Vanguard 2 Rocket - Pass Details

Date: 26 January 2020
Orbit: 553 x 3327 km, 32.9° (Epoch: 26 February)

Event Time Altitude Azimuth Distance (km) Brightness Sun altitude
Rises 08:30:17 0° 218° (SW) 2,778 - -48.1°
Reaches altitude 10° 08:33:02 10° 199° (SSW) 1,817 - -47.6°
Maximum altitude 08:35:51 19° 152° (SSE) 1,371 - -47.0°
Drops below altitude 10° 08:38:52 10° 106° (ESE) 1,971 - -46.4°
Exits shadow 08:40:37 - 94° (E) 2,580 9.9 -46.1°
Sets 08:42:01 0° 88° (E) 3,114 10.4 -45.8°
